Weather History for NW Arkansas Airport, AR

Change the Weather History Date:

Saturday, March 2, 2013

  Actual Average Record
Temperature  
Mean Temperature 31 °F -  
Max Temperature 39 °F - - ()
Min Temperature 23 °F - - ()
Degree Days  
Heating Degree Days 34    
Moisture  
Dew Point 21 °F    
Average Humidity 74    
Maximum Humidity 93    
Minimum Humidity 45    
Precipitation  
Precipitation 0.00 in - - ()
Sea Level Pressure  
Sea Level Pressure 30.29 in    
Wind  
Wind Speed 8 mph (NNW)    
Max Wind Speed 15 mph    
Max Gust Speed 17 mph    
Visibility 9 miles    
Events Snow    
T = Trace of Precipitation, MM = Missing Value Source: NWS Daily Summary

Daily Weather History Graph

Daily Weather History Graph

Search for Another Location

Airport:

Trip Planner

Search our weather history database for the weather conditions in past years. The results will help you decide how hot, cold, wet, or windy it might be!

Date:

Astronomy

Mar. 02, 2013 Rise Set
Actual Time 6:45 AM CST 6:13 PM CST
Civil Twilight 6:20 AM CST 6:38 PM CST
Nautical Twilight 5:50 AM CST 7:08 PM CST
Astronomical Twilight 5:20 AM CST 7:38 PM CST
Moon 11:42 PM CST (3/2) 9:24 AM CST (3/2)
Length of Visible Light 12h 18m
Length of Day
11h 27m
Waning Gibbous, 74% of the Moon is Illuminated
Mar 2
Waning Gibbous
Mar 4
Last Quarter
Mar 11
New
Mar 19
First Quarter
Mar 27
Full

Hourly Weather History & Observations

Time (CST) Temp. Windchill Dew Point Humidity Pressure Visibility Wind Dir Wind Speed Gust Speed Precip Events Conditions
12:08 AM 26.6 °F 17.5 °F 21.2 °F 80% 30.25 in 9.0 mi NNW 9.2 mph - N/A   Overcast
12:53 AM 26.1 °F 16.2 °F 23.0 °F 88% 30.28 in 5.0 mi NNW 10.4 mph - 0.00 in Snow Light Snow
1:53 AM 26.1 °F 16.8 °F 23.0 °F 88% 30.29 in 6.0 mi NNW 9.2 mph - 0.00 in Snow Light Snow
2:53 AM 25.0 °F 15.5 °F 23.0 °F 92% 30.28 in 7.0 mi NNW 9.2 mph - 0.00 in   Overcast
3:53 AM 25.0 °F 17.1 °F 21.9 °F 88% 30.27 in 9.0 mi NNW 6.9 mph - N/A   Overcast
4:12 AM 24.8 °F 16.1 °F 21.2 °F 86% 30.23 in 9.0 mi NNW 8.1 mph - N/A   Overcast
4:53 AM 25.0 °F 16.3 °F 21.0 °F 85% 30.29 in 10.0 mi NNW 8.1 mph - N/A   Overcast
5:53 AM 24.1 °F 17.0 °F 21.0 °F 88% 30.31 in 10.0 mi NW 5.8 mph - N/A   Overcast
6:53 AM 23.0 °F 15.8 °F 21.0 °F 92% 30.32 in 8.0 mi NW 5.8 mph - N/A   Overcast
7:45 AM 23.0 °F 17.0 °F 21.2 °F 93% 30.29 in 7.0 mi NW 4.6 mph - N/A   Mostly Cloudy
7:53 AM 23.0 °F 15.8 °F 21.0 °F 92% 30.34 in 7.0 mi NW 5.8 mph - N/A   Scattered Clouds
8:00 AM 23.0 °F 15.8 °F 21.2 °F 93% 30.30 in 7.0 mi NW 5.8 mph - N/A   Mostly Cloudy
8:40 AM 24.8 °F 16.9 °F 21.2 °F 86% 30.30 in 9.0 mi NNW 6.9 mph - N/A   Scattered Clouds
8:53 AM 27.0 °F 18.7 °F 21.0 °F 78% 30.34 in 10.0 mi NNW 8.1 mph - N/A   Clear
9:43 AM 28.4 °F 18.0 °F 19.4 °F 69% 30.31 in 10.0 mi NNW 12.7 mph - N/A   Mostly Cloudy
9:53 AM 28.9 °F 17.7 °F 19.9 °F 69% 30.34 in 10.0 mi North 15.0 mph - N/A   Mostly Cloudy
10:53 AM 30.9 °F 21.2 °F 21.0 °F 67% 30.34 in 10.0 mi NNW 12.7 mph - N/A   Overcast
11:53 AM 33.1 °F 23.9 °F 21.9 °F 64% 30.33 in 10.0 mi North 12.7 mph 16.1 mph N/A   Mostly Cloudy
12:06 PM 33.8 °F 27.0 °F 19.4 °F 56% 30.29 in 10.0 mi NNW 8.1 mph - N/A   Partly Cloudy
12:33 PM 33.8 °F 25.3 °F 21.2 °F 60% 30.28 in 10.0 mi North 11.5 mph - N/A   Mostly Cloudy
12:53 PM 34.0 °F 28.8 °F 21.0 °F 59% 30.30 in 10.0 mi West 5.8 mph - N/A   Scattered Clouds
1:53 PM 36.0 °F 30.3 °F 21.0 °F 55% 30.28 in 10.0 mi Variable 6.9 mph - N/A   Clear
2:53 PM 37.0 °F 29.8 °F 21.0 °F 52% 30.28 in 10.0 mi WNW 10.4 mph 17.3 mph N/A   Clear
3:53 PM 39.0 °F 34.0 °F 19.9 °F 46% 30.26 in 10.0 mi NNW 6.9 mph - N/A   Clear
4:53 PM 37.9 °F 32.7 °F 18.0 °F 45% 30.26 in 10.0 mi North 6.9 mph - N/A   Clear
5:53 PM 35.1 °F 32.2 °F 18.0 °F 50% 30.27 in 10.0 mi NW 3.5 mph - N/A   Clear
7:53 PM 30.0 °F 25.2 °F 19.0 °F 64% 30.27 in 10.0 mi WNW 4.6 mph - N/A   Clear
8:53 PM 28.9 °F 25.2 °F 19.0 °F 67% 30.26 in 10.0 mi NW 3.5 mph - N/A   Clear
9:53 PM 27.0 °F - 21.0 °F 78% 30.26 in 10.0 mi Calm Calm - N/A   Clear
10:53 PM 25.0 °F - 19.9 °F 81% 30.24 in 10.0 mi Calm Calm - N/A   Clear
11:53 PM 24.1 °F - 19.0 °F 81% 30.22 in 10.0 mi Calm Calm - N/A   Scattered Clouds